Powrót do katalogu

COSMOS 2251 DEB

AktywnyLEO
NORAD 36005·DEBRIS·🇷🇺 Russia

Wystrzelony Jun 16, 1993 z Plesetsk Cosmodrome

Loading…

Następne Przeloty (najbliższe 24 godziny)

TLE

ŚwieżeSource: Space-Track

Epoka: Sep 13, 2026, 20:40 UTC

1 36005U 93036AWX 26256.86161914  .00000270  00000-0  79134-4 0  9999
2 36005  74.0259 299.1067 0060872   6.5996 353.5950 14.47643375915655

Śledź COSMOS 2251 DEB w czasie rzeczywistym z AllMySat

Download on the App Store